This demonstration page uses our WeatherBlox Daily Observations layout. Learn more.

Hourly Observations for December 21, 2017

Temp ( °F °C ) Dew Point ( °F °C ) Humidity (%) Winds ( mph kmh ) Pressure ( in mb ) Visibility ( mi km ) Precip ( " mm )
12:45 am 00:45 Cloudy 42 5.6 31 -0.6 65 65 SE 5 7 29.83 1010 10 16.0934 0 0
12:54 am 00:54 Cloudy 42 5.6 31 -0.6 65 65 ENE 3 6 29.82 1010 10 16.0934 0 0
1:54 am 01:54 Cloudy 41 5 30 -1.1 65 65 ENE 8 13 29.83 1010 10 16.0934 0 0
2:54 am 02:54 Cloudy 40 4.4 29 -1.7 65 65 ENE 8 13 29.83 1010 10 16.0934 0 0
3:19 am 03:19 Cloudy 40 4.4 29 -1.7 65 65 E 10 17 29.85 1011 10 16.0934 0 0
3:36 am 03:36 Cloudy 40 4.4 29 -1.7 65 65 ENE 7 11 29.85 1011 10 16.0934 0 0
3:54 am 03:54 Cloudy 40 4.4 29 -1.7 65 65 ENE 6 9 29.84 1011 10 16.0934 0 0
4:13 am 04:13 Cloudy 40 4.4 29 -1.7 65 65 E 8 13 29.83 1010 10 16.0934 0 0
4:31 am 04:31 Cloudy 40 4.4 29 -1.7 65 65 E 6 9 29.83 1010 10 16.0934 0 0
4:54 am 04:54 Cloudy 40 4.4 29 -1.7 65 65 E 5 7 29.81 1010 10 16.0934 0 0
5:39 am 05:39 Cloudy 41 5 31 -0.6 67 67 ENE 6 9 29.83 1010 10 16.0934 0 0
5:54 am 05:54 Cloudy 41 5 31 -0.6 67 67 E 5 7 29.81 1010 10 16.0934 0 0
6:42 am 06:42 Cloudy 40 4.4 31 -0.6 70 70 NNE 6 9 29.83 1010 10 16.0934 0 0
6:54 am 06:54 Cloudy 40 4.4 31 -0.6 70 70 NE 6 9 29.82 1010 10 16.0934 0 0
7:54 am 07:54 Cloudy 41 5 31 -0.6 67 67 NE 7 11 29.83 1010 10 16.0934 0 0
8:04 am 08:04 Cloudy 40 4.4 31 -0.6 70 70 NE 8 13 29.85 1011 10 16.0934 0 0
8:54 am 08:54 Cloudy 40 4.4 30 -1.1 68 68 NNE 9 15 29.85 1011 10 16.0934 0 0
9:54 am 09:54 Cloudy 39 3.9 31 -0.6 73 73 N 13 20 29.88 1012 10 16.0934 0 0
10:17 am 10:17 Cloudy 38 3.3 31 -0.6 76 76 N 16 26 29.88 1012 10 16.0934 0 0
10:54 am 10:54 Cloudy with Mist and Fog 37 2.8 33 0.6 86 86 NNE 20 31 29.91 1013 4 6.43736 0 0
11:08 am 11:08 Cloudy with Light Snow 36 2.2 34 1.1 93 93 N 17 28 29.94 1014 2 3.21868 0 0.0254
11:27 am 11:27 Windy with Snow Likely 35 1.7 33 0.6 93 93 N 21 33 29.94 1014 1.5 2.41401 0 0.0254
11:54 am 11:54 Windy with Snow Likely 34 1.1 32 0 92 92 N 20 31 29.9 1013 1.5 2.41401 0.01 0.254
12:06 pm 12:06 Windy with Snow Likely 34 1.1 32 0 92 92 N 21 33 29.94 1014 2 3.21868 0 0.0254
12:54 pm 12:54 Cloudy with Mist and Fog 32 0 29 -1.7 88 88 N 24 39 29.91 1013 2 3.21868 0.01 0.254
1:54 pm 13:54 Cloudy 31 -0.6 28 -2.2 89 89 N 25 41 29.93 1014 9 14.48406 0 0.0254
2:15 pm 14:15 Cloudy 30 -1.1 27 -2.8 88 88 N 23 37 29.97 1015 9 14.48406 0 0
2:54 pm 14:54 Cloudy 29 -1.7 26 -3.3 89 89 N 22 35 29.96 1015 7 11.26538 0 0
3:25 pm 15:25 Cloudy with Mist and Fog 28 -2.2 25 -3.9 88 88 N 18 30 30 1016 4 6.43736 0 0
3:54 pm 15:54 Cloudy with Mist and Fog 27 -2.8 25 -3.9 92 92 N 21 33 29.98 1015 5 8.0467 0 0
4:47 pm 16:47 Cloudy 27 -2.8 24 -4.4 89 89 N 21 33 30.06 1018 7 11.26538 0 0
4:54 pm 16:54 Cloudy 27 -2.8 24 -4.4 89 89 N 18 30 30.01 1016 8 12.87472 0 0
5:54 pm 17:54 Windy with Snow Likely 25 -3.9 21 -6.1 85 85 N 23 37 30.05 1018 4 6.43736 0 0.0254
6:54 pm 18:54 Cloudy 24 -4.4 20 -6.7 84 84 N 20 31 30.06 1018 10 16.0934 0 0.0254
7:15 pm 19:15 Windy with Snow Likely 24 -4.4 20 -6.7 84 84 N 23 37 30.12 1020 8 12.87472 0 0.0254
7:26 pm 19:26 Cloudy with Light Snow 24 -4.4 21 -6.1 88 88 N 18 30 30.15 1021 1.75 2.816345 0 0.0254
7:36 pm 19:36 Cloudy with Light Snow 24 -4.4 21 -6.1 88 88 N 17 28 30.15 1021 2 3.21868 0.01 0.254
7:49 pm 19:49 Cloudy with Light Snow 25 -4 19 -7 80 80 N 16 26 30.15 1021 4 6.43736 0.01 0.254
7:54 pm 19:54 Cloudy with Light Snow 24 -4.4 21 -6.1 88 88 N 15 24 30.09 1019 5 8.0467 0.01 0.254
8:14 pm 20:14 Cloudy with Light Snow 24 -4.4 21 -6.1 88 88 N 16 26 30.15 1021 4 6.43736 0 0.0254
8:23 pm 20:23 Windy with Snow Likely 24 -4.4 20 -6.7 84 84 N 22 35 30.15 1021 2 3.21868 0 0.0254
8:34 pm 20:34 Cloudy with Mist and Fog 24 -4.4 21 -6.1 88 88 N 15 24 30.15 1021 5 8.0467 0 0.0254
8:44 pm 20:44 Cloudy with Mist and Fog 24 -4.4 21 -6.1 88 88 N 15 24 30.15 1021 4 6.43736 0 0.0254
8:54 pm 20:54 Cloudy with Mist and Fog 23 -5 21 -6.1 92 92 N 13 20 30.11 1020 4 6.43736 0 0.0254
9:29 pm 21:29 Cloudy with Light Snow 23 -5 21 -6.1 92 92 N 16 26 30.18 1022 2.5 4.02335 0 0.0254
9:35 pm 21:35 Cloudy with Light Snow 23 -5 20 -6.7 88 88 N 12 19 30.18 1022 1.75 2.816345 0 0.0254
9:54 pm 21:54 Cloudy with Light Snow 23 -5 20 -6.7 88 88 N 16 26 30.12 1020 2 3.21868 0 0.0254
10:23 pm 22:23 Cloudy with Light Snow 23 -5 20 -6.7 88 88 N 13 20 30.18 1022 2.5 4.02335 0 0.0254
10:43 pm 22:43 Cloudy with Light Snow 23 -5 20 -6.7 88 88 N 14 22 30.18 1022 4 6.43736 0 0.0254
10:54 pm 22:54 Cloudy 23 -5 19 -7.2 85 85 NNW 15 24 30.15 1021 7 11.26538 0 0.0254
11:54 pm 23:54 Cloudy 22 -5.6 18 -7.8 85 85 N 14 22 30.16 1021 10 16.0934 0 0

Powered by AerisWeather